Location: Nasgenstadt
(48.2786°N, 9.7553°E)
Time: 15:09:07
(UTC+02:00)

ISS - Pass Details

Date: 21 May 2021
Orbit: 419 x 422 km, 51.6° (Epoch: 25 June)

Event Time Altitude Azimuth Distance (km) Brightness Sun altitude
Rises 23:36:29 0° 287° (WNW) 2,373 0.7 -17.7°
Reaches altitude 10° 23:38:37 10° 292° (WNW) 1,508 -0.3 -17.9°
Maximum altitude 23:41:56 51° 10° (N) 537 -3.0 -18.1°
Enters shadow 23:44:02 20° 80° (E) 1,038 -1.9 -18.2°
